Date,Installs,Update checks
2021-08-16,3,1
2021-08-17,15,4
2021-08-18,9,9
2021-08-19,13,10
2021-08-20,8,19
2021-08-21,3,16
2021-08-22,6,15
2021-08-23,18,20
2021-08-24,4,22
2021-08-25,5,26
2021-08-26,3,19
2021-08-27,8,22
2021-08-28,2,26
2021-08-29,1,20
2021-08-30,10,29
2021-08-31,8,31
2021-09-01,6,36
2021-09-02,9,35
2021-09-03,8,33
2021-09-04,8,31
2021-09-05,7,35
2021-09-06,9,46
2021-09-07,8,44
2021-09-08,8,49
2021-09-09,2,49
2021-09-10,3,43
2021-09-11,0,40
2021-09-12,4,32
2021-09-13,6,49
2021-09-14,2,49
2021-09-15,3,54
2021-09-16,7,55
2021-09-17,8,59
2021-09-18,6,51
2021-09-19,1,39
2021-09-20,8,44
2021-09-21,5,47
2021-09-22,2,57
2021-09-23,5,63
2021-09-24,5,62
2021-09-25,4,53
2021-09-26,5,56
2021-09-27,3,65
2021-09-28,4,69
2021-09-29,7,61
2021-09-30,13,69
2021-10-01,3,49
2021-10-02,0,52
2021-10-03,2,55
2021-10-04,8,58
2021-10-05,8,59
2021-10-06,6,75
2021-10-07,5,75
2021-10-08,9,81
2021-10-09,5,89
2021-10-10,3,69
2021-10-11,3,93
2021-10-12,1,92
2021-10-13,4,91
2021-10-14,5,83
2021-10-15,7,96
2021-10-16,5,71
2021-10-17,6,81
2021-10-18,4,85
2021-10-19,9,88
2021-10-20,6,105
2021-10-21,8,102
2021-10-22,7,105
2021-10-23,1,87
2021-10-24,8,76
2021-10-25,7,120
2021-10-26,6,116
2021-10-27,6,111
2021-10-28,4,113
2021-10-29,8,115
2021-10-30,8,105
2021-10-31,3,92
2021-11-01,2,125
2021-11-02,8,129
2021-11-03,5,128
2021-11-04,5,114
2021-11-05,2,126
2021-11-06,5,111
2021-11-07,5,96
2021-11-08,4,126
2021-11-09,6,119
2021-11-10,6,128
2021-11-11,0,127
2021-11-12,3,131
2021-11-13,3,110
2021-11-14,4,103
2021-11-15,2,126
2021-11-16,2,124
2021-11-17,3,120
2021-11-18,5,116
2021-11-19,1,137
2021-11-20,8,107
2021-11-21,3,103
2021-11-22,4,117
2021-11-23,7,139
2021-11-24,2,121
2021-11-25,3,128
2021-11-26,12,130
2021-11-27,11,114
2021-11-28,8,116
2021-11-29,11,146
2021-11-30,8,139
2021-12-01,14,144
2021-12-02,14,153
2021-12-03,3,144
2021-12-04,2,130
2021-12-05,2,119
2021-12-06,6,159
2021-12-07,5,136
2021-12-08,6,142
2021-12-09,7,157
2021-12-10,8,157
2021-12-11,8,136
2021-12-12,9,115
2021-12-13,7,160
2021-12-14,5,180
2021-12-15,2,165
2021-12-16,5,155
2021-12-17,10,156
2021-12-18,9,144
2021-12-19,9,133
2021-12-20,10,173
2021-12-21,8,175
2021-12-22,7,180
2021-12-23,5,167
2021-12-24,8,177
2021-12-25,5,135
2021-12-26,3,155
2021-12-27,5,172
2021-12-28,2,179
2021-12-29,3,153
2021-12-30,3,178
2021-12-31,3,182
2022-01-01,8,124
2022-01-02,5,145
2022-01-03,6,151
2022-01-04,2,179
2022-01-05,3,179
2022-01-06,5,183
2022-01-07,6,181
2022-01-08,3,154
2022-01-09,4,9
2022-01-10,5,0
2022-01-11,4,194
2022-01-12,7,173
2022-01-13,9,183
2022-01-14,4,171
2022-01-15,6,154
2022-01-16,6,154
2022-01-17,4,192
2022-01-18,7,208
2022-01-19,7,202
2022-01-20,1,179
2022-01-21,1,195
2022-01-22,4,166
2022-01-23,12,176
2022-01-24,5,191
2022-01-25,5,205
2022-01-26,5,193
2022-01-27,6,169
2022-01-28,7,173
2022-01-29,9,154
2022-01-30,4,125
2022-01-31,3,138
2022-02-01,1,132
2022-02-02,0,110
2022-02-03,0,120
2022-02-04,4,126
2022-02-05,3,125
2022-02-06,2,149
2022-02-07,2,176
2022-02-08,1,179
2022-02-09,5,182
2022-02-10,10,190
2022-02-11,1,198
2022-02-12,4,164
2022-02-13,1,172
2022-02-14,6,202
2022-02-15,10,185
2022-02-16,8,208
2022-02-17,4,209
2022-02-18,6,208
2022-02-19,4,187
2022-02-20,2,176
2022-02-21,2,203
2022-02-22,6,213
2022-02-23,7,196
2022-02-24,17,217
2022-02-25,7,208
2022-02-26,2,180
2022-02-27,4,171
2022-02-28,3,215
2022-03-01,4,226
2022-03-02,11,226
2022-03-03,5,217
2022-03-04,3,216
2022-03-05,5,192
2022-03-06,8,198
2022-03-07,9,217
2022-03-08,4,217
2022-03-09,4,223
2022-03-10,14,231
2022-03-11,5,231
2022-03-12,8,201
2022-03-13,15,198
2022-03-14,14,252
2022-03-15,9,234
2022-03-16,10,226
2022-03-17,9,249
2022-03-18,10,245
2022-03-19,10,225
2022-03-20,11,205
2022-03-21,7,260
2022-03-22,3,247
2022-03-23,1,246
2022-03-24,2,248
2022-03-25,3,247
2022-03-26,4,221
2022-03-27,9,222
2022-03-28,3,236
2022-03-29,6,264
2022-03-30,10,253
2022-03-31,13,251
2022-04-01,6,262
2022-04-02,8,251
2022-04-03,4,225
2022-04-04,11,238
2022-04-05,2,246
2022-04-06,1,274
2022-04-07,2,261
2022-04-08,6,264
2022-04-09,2,253
2022-04-10,4,226
2022-04-11,3,272
2022-04-12,2,280
2022-04-13,7,266
2022-04-14,5,273
2022-04-15,6,282
2022-04-16,5,239
2022-04-17,2,238
2022-04-18,5,276
2022-04-19,8,311
2022-04-20,4,286
2022-04-21,7,291
2022-04-22,4,299
2022-04-23,3,246
2022-04-24,3,279
2022-04-25,8,284
2022-04-26,2,302
2022-04-27,8,281
2022-04-28,5,275
2022-04-29,7,296
2022-04-30,4,223
2022-05-01,5,215
2022-05-02,4,229
2022-05-03,3,228
2022-05-04,0,245
2022-05-05,0,275
2022-05-06,3,278
2022-05-07,7,281
2022-05-08,4,236
2022-05-09,2,284
2022-05-10,3,287
2022-05-11,4,282
2022-05-12,6,274
2022-05-13,5,300
2022-05-14,9,268
2022-05-15,8,230
2022-05-16,4,305
2022-05-17,1,289
2022-05-18,5,296
2022-05-19,1,280
2022-05-20,4,294
2022-05-21,10,260
2022-05-22,3,239
2022-05-23,1,304
2022-05-24,3,293
2022-05-25,2,271
2022-05-26,7,287
2022-05-27,8,284
2022-05-28,3,270
2022-05-29,9,263
2022-05-30,7,321
2022-05-31,7,301
2022-06-01,9,294
2022-06-02,5,299
2022-06-03,4,239
2022-06-04,4,255
2022-06-05,0,253
2022-06-06,4,316
2022-06-07,5,315
2022-06-08,1,289
2022-06-09,10,295
2022-06-10,10,295
2022-06-11,8,261
2022-06-12,6,234
2022-06-13,7,320
2022-06-14,8,300
2022-06-15,3,297
2022-06-16,2,303
2022-06-17,3,289
2022-06-18,4,271
2022-06-19,1,251
2022-06-20,6,324
2022-06-21,8,298
2022-06-22,10,302
2022-06-23,7,320
2022-06-24,6,295
2022-06-25,7,247
2022-06-26,5,254
2022-06-27,1,276
2022-06-28,3,270
2022-06-29,3,304
2022-06-30,3,294
2022-07-01,2,298
2022-07-02,2,234
2022-07-03,3,248
2022-07-04,2,300
2022-07-05,7,292
2022-07-06,1,288
2022-07-07,2,296
2022-07-08,1,293
2022-07-09,2,251
2022-07-10,6,234
2022-07-11,3,287
2022-07-12,5,298
2022-07-13,1,296
2022-07-14,0,303
2022-07-15,1,300
2022-07-16,2,243
2022-07-17,4,234
2022-07-18,2,304
2022-07-19,4,305
2022-07-20,4,289
2022-07-21,1,294
2022-07-22,2,298
2022-07-23,1,241
2022-07-24,7,155
2022-07-25,5,290
2022-07-26,4,279
2022-07-27,6,299
2022-07-28,2,291
2022-07-29,4,283
2022-07-30,2,237
2022-07-31,5,234
2022-08-01,4,287
2022-08-02,8,303
2022-08-03,7,283
2022-08-04,5,299
2022-08-05,3,282
2022-08-06,3,233
2022-08-07,4,243
2022-08-08,5,269
2022-08-09,4,309
2022-08-10,3,291
2022-08-11,0,291
2022-08-12,3,299
2022-08-13,4,264
2022-08-14,5,244
2022-08-15,3,292
2022-08-16,8,287
2022-08-17,6,296
2022-08-18,3,283
2022-08-19,0,295
2022-08-20,2,254
2022-08-21,2,241
2022-08-22,5,292
2022-08-23,4,290
2022-08-24,3,301
2022-08-25,4,288
2022-08-26,2,297
2022-08-27,3,261
2022-08-28,3,261
2022-08-29,0,317
2022-08-30,1,301
2022-08-31,2,294
2022-09-01,3,293
2022-09-02,2,296
2022-09-03,3,268
2022-09-04,4,254
2022-09-05,1,297
2022-09-06,4,296
2022-09-07,4,304
2022-09-08,2,311
2022-09-09,0,303
2022-09-10,2,221
2022-09-11,6,253
2022-09-12,1,266
2022-09-13,2,301
2022-09-14,3,295
2022-09-15,2,315
2022-09-16,2,290
2022-09-17,5,299
2022-09-18,0,249
2022-09-19,0,328
2022-09-20,4,292
2022-09-21,2,309
2022-09-22,4,312
2022-09-23,2,300
2022-09-24,2,277
2022-09-25,2,263
2022-09-26,2,283
2022-09-27,3,290
2022-09-28,4,310
2022-09-29,7,313
2022-09-30,4,285
2022-10-01,3,229
2022-10-02,5,252
2022-10-03,4,228
2022-10-04,5,243
2022-10-05,5,247
2022-10-06,7,274
2022-10-07,7,259
2022-10-08,7,314
2022-10-09,6,298
2022-10-10,7,302
2022-10-11,9,332
2022-10-12,5,326
2022-10-13,6,311
2022-10-14,4,317
2022-10-15,5,274
2022-10-16,3,262
2022-10-17,2,300
2022-10-18,5,293
2022-10-19,7,306
2022-10-20,10,308
2022-10-21,3,307
2022-10-22,4,263
2022-10-23,5,266
2022-10-24,3,302
2022-10-25,4,297
2022-10-26,7,314
2022-10-27,8,311
2022-10-28,3,291
2022-10-29,4,282
2022-10-30,2,275
2022-10-31,5,313
2022-11-01,8,322
2022-11-02,5,319
2022-11-03,3,313
2022-11-04,5,316
2022-11-05,0,279
2022-11-06,4,268
2022-11-07,0,326
2022-11-08,3,329
2022-11-09,6,309
2022-11-10,8,316
2022-11-11,10,330
2022-11-12,8,284
2022-11-13,6,278
2022-11-14,10,328
2022-11-15,2,323
2022-11-16,2,347
2022-11-17,5,303
2022-11-18,3,305
2022-11-19,4,258
2022-11-20,3,279
2022-11-21,4,297
2022-11-22,1,302
2022-11-23,4,320
2022-11-24,6,323
2022-11-25,6,312
2022-11-26,3,263
2022-11-27,7,293
2022-11-28,12,313
2022-11-29,4,313
2022-11-30,8,315
2022-12-01,7,324
2022-12-02,5,324
2022-12-03,3,281
2022-12-04,6,278
2022-12-05,2,315
2022-12-06,2,310
2022-12-07,4,322
2022-12-08,7,315
2022-12-09,8,301
2022-12-10,3,274
2022-12-11,6,222
2022-12-12,11,301
2022-12-13,7,314
2022-12-14,22,269
2022-12-15,11,308
2022-12-16,13,261
2022-12-17,13,233
2022-12-18,2,247
2022-12-19,10,296
2022-12-20,4,276
2022-12-21,6,266
2022-12-22,10,283
2022-12-23,11,262
2022-12-24,9,220
2022-12-25,11,268
2022-12-26,14,280
2022-12-27,9,305
2022-12-28,7,307
2022-12-29,16,323
2022-12-30,16,325
2022-12-31,14,262
2023-01-01,24,276
2023-01-02,15,304
2023-01-03,12,379
2023-01-04,18,355
2023-01-05,17,365
2023-01-06,18,386
2023-01-07,10,324
2023-01-08,6,347
2023-01-09,6,374
2023-01-10,21,372
2023-01-11,15,412
2023-01-12,22,379
2023-01-13,13,381
2023-01-14,11,338
2023-01-15,22,344
2023-01-16,13,388
2023-01-17,12,368
2023-01-18,11,347
2023-01-19,22,322
2023-01-20,22,306
2023-01-21,12,251
2023-01-22,16,279
2023-01-23,8,272
2023-01-24,13,276
2023-01-25,18,295
2023-01-26,15,315
2023-01-27,11,325
2023-01-28,20,386
2023-01-29,13,386
2023-01-30,17,419
2023-01-31,22,433
2023-02-01,20,434
2023-02-02,23,437
2023-02-03,15,455
2023-02-04,8,375
2023-02-05,18,380
2023-02-06,12,462
2023-02-07,16,441
2023-02-08,18,491
2023-02-09,21,474
2023-02-10,24,484
2023-02-11,30,437
2023-02-12,16,417
2023-02-13,25,533
2023-02-14,18,467
2023-02-15,19,510
2023-02-16,22,509
2023-02-17,24,486
2023-02-18,20,443
2023-02-19,27,431
2023-02-20,23,517
2023-02-21,15,534
2023-02-22,22,554
2023-02-23,20,565
2023-02-24,26,556
2023-02-25,23,477
2023-02-26,20,493
2023-02-27,10,583
2023-02-28,25,551
2023-03-01,20,595
2023-03-02,26,604
2023-03-03,26,615
2023-03-04,22,533
2023-03-05,26,523
2023-03-06,20,625
2023-03-07,31,618
2023-03-08,25,615
2023-03-09,36,629
2023-03-10,18,651
2023-03-11,20,557
2023-03-12,21,552
2023-03-13,19,680
2023-03-14,24,659
2023-03-15,30,685
2023-03-16,21,683
2023-03-17,20,659
2023-03-18,15,553
2023-03-19,9,576
2023-03-20,23,701
2023-03-21,25,713
2023-03-22,21,720
2023-03-23,28,731
2023-03-24,23,722
2023-03-25,27,628
2023-03-26,23,596
2023-03-27,22,738
2023-03-28,32,720
2023-03-29,15,694
2023-03-30,21,762
2023-03-31,19,769
2023-04-01,15,613
2023-04-02,16,639
2023-04-03,12,767
2023-04-04,8,774
2023-04-05,10,653
2023-04-06,12,775
2023-04-07,25,789
2023-04-08,20,663
2023-04-09,19,640
2023-04-10,16,789
2023-04-11,15,769
2023-04-12,15,817
2023-04-13,21,809
2023-04-14,17,781
2023-04-15,15,648
2023-04-16,12,647
2023-04-17,25,804
2023-04-18,25,792
2023-04-19,21,799
2023-04-20,19,792
2023-04-21,24,795
2023-04-22,7,675
2023-04-23,6,785
2023-04-24,11,779
2023-04-25,10,787
2023-04-26,7,825
2023-04-27,9,826
2023-04-28,12,787
2023-04-29,5,620
2023-04-30,10,592
2023-05-01,10,620
2023-05-02,12,648
2023-05-03,9,670
2023-05-04,12,840
2023-05-05,13,822
2023-05-06,18,836
2023-05-07,20,719
2023-05-08,9,859
2023-05-09,7,847
2023-05-10,8,798
2023-05-11,7,828
2023-05-12,7,798
2023-05-13,11,743
2023-05-14,11,697
2023-05-15,8,819
2023-05-16,14,828
2023-05-17,15,850
2023-05-18,14,845
2023-05-19,12,830
2023-05-20,8,733
2023-05-21,10,728
2023-05-22,10,875
2023-05-23,10,862
2023-05-24,9,838
2023-05-25,6,891
2023-05-26,10,856
2023-05-27,6,726
2023-05-28,12,685
2023-05-29,10,882
2023-05-30,11,845
2023-05-31,10,844
2023-06-01,9,830
2023-06-02,8,865
2023-06-03,6,718
2023-06-04,8,712
2023-06-05,8,874
2023-06-06,18,873
2023-06-07,10,871
2023-06-08,17,865
2023-06-09,12,822
2023-06-10,10,762
2023-06-11,8,753
2023-06-12,9,903
2023-06-13,5,866
2023-06-14,8,881
2023-06-15,5,850
2023-06-16,4,848
2023-06-17,6,740
2023-06-18,10,731
2023-06-19,9,862
2023-06-20,15,860
2023-06-21,11,863
2023-06-22,14,697
2023-06-23,21,692
2023-06-24,8,768
2023-06-25,9,868
2023-06-26,13,871
2023-06-27,28,855
2023-06-28,14,855
2023-06-29,14,924
2023-06-30,9,896
2023-07-01,20,736
2023-07-02,15,739
2023-07-03,3,885
2023-07-04,23,893
2023-07-05,18,879
2023-07-06,22,921
2023-07-07,19,914
2023-07-08,20,778
2023-07-09,18,754
2023-07-10,20,929
2023-07-11,11,895
2023-07-12,13,959
2023-07-13,14,927
2023-07-14,7,946
2023-07-15,9,781
2023-07-16,13,769
2023-07-17,4,918
2023-07-18,5,939
2023-07-19,16,922
2023-07-20,14,923
2023-07-21,9,901
2023-07-22,18,785
2023-07-23,14,761
2023-07-24,19,946
2023-07-25,14,922
2023-07-26,15,946
2023-07-27,12,934
2023-07-28,14,915
2023-07-29,18,780
2023-07-30,9,772
2023-07-31,28,940
2023-08-01,20,944
2023-08-02,14,952
2023-08-03,16,934
2023-08-04,14,943
2023-08-05,6,815
2023-08-06,10,795
2023-08-07,17,1008
2023-08-08,15,946
2023-08-09,9,972
2023-08-10,13,946
2023-08-11,11,969
2023-08-12,17,818
2023-08-13,10,802
2023-08-14,11,973
2023-08-15,6,984
2023-08-16,10,978
2023-08-17,16,953
2023-08-18,18,985
2023-08-19,13,839
2023-08-20,16,791
2023-08-21,9,1000
2023-08-22,11,963
2023-08-23,9,979
2023-08-24,13,956
2023-08-25,9,1001
2023-08-26,8,842
2023-08-27,10,813
2023-08-28,16,1006
2023-08-29,10,985
2023-08-30,18,981
2023-08-31,17,997
2023-09-01,18,1013
2023-09-02,22,881
2023-09-03,12,820
2023-09-04,8,991
2023-09-05,23,1028
2023-09-06,23,1046
2023-09-07,27,992
2023-09-08,26,1008
2023-09-09,30,883
2023-09-10,12,867
2023-09-11,25,1047
2023-09-12,15,1033
2023-09-13,12,1027
2023-09-14,7,1063
2023-09-15,7,1016
2023-09-16,21,930
2023-09-17,31,869
2023-09-18,31,1083
2023-09-19,15,1072
2023-09-20,11,1065
2023-09-21,27,1100
2023-09-22,20,1062
2023-09-23,13,952
2023-09-24,17,934
2023-09-25,13,1084
2023-09-26,18,1086
2023-09-27,25,1085
2023-09-28,30,1042
2023-09-29,20,817
2023-09-30,27,856
2023-10-01,28,769
2023-10-02,15,838
2023-10-03,21,863
2023-10-04,13,886
2023-10-05,21,910
2023-10-06,26,933
2023-10-07,22,1113
2023-10-08,11,1117
2023-10-09,12,1085
2023-10-10,19,1152
2023-10-11,18,1166
2023-10-12,26,1167
2023-10-13,29,1146
2023-10-14,23,984
2023-10-15,21,968
2023-10-16,35,1193
2023-10-17,25,1187
2023-10-18,20,1213
2023-10-19,14,1180
2023-10-20,14,1171
2023-10-21,17,1011
2023-10-22,12,995
2023-10-23,36,1243
2023-10-24,23,1225
2023-10-25,20,1208
2023-10-26,22,1211
2023-10-27,26,1174
2023-10-28,32,1064
2023-10-29,21,1016
2023-10-30,25,1290
2023-10-31,26,1255
2023-11-01,33,1258
2023-11-02,20,1287
2023-11-03,29,1272
2023-11-04,25,1118
2023-11-05,19,1077
2023-11-06,25,1264
2023-11-07,19,1278
2023-11-08,23,1271
2023-11-09,19,1294
2023-11-10,42,1299
2023-11-11,17,1134
2023-11-12,19,1089
2023-11-13,27,1289
2023-11-14,16,1356
2023-11-15,22,1326
2023-11-16,18,1324
2023-11-17,14,1259
2023-11-18,15,1131
2023-11-19,23,1113
2023-11-20,29,1312
2023-11-21,15,1339
2023-11-22,24,1329
2023-11-23,22,1337
2023-11-24,20,1393
2023-11-25,28,1146
2023-11-26,21,1124
2023-11-27,16,1386
2023-11-28,17,1387
2023-11-29,19,1383
2023-11-30,20,1370
2023-12-01,17,1346
2023-12-02,17,1175
2023-12-03,20,1127
2023-12-04,20,1397
2023-12-05,21,906
2023-12-06,17,859
2023-12-07,20,841
2023-12-08,23,979
2023-12-09,8,741
2023-12-10,11,725
2023-12-11,12,901
2023-12-12,11,882
2023-12-13,15,849
2023-12-14,18,817
2023-12-15,13,852
2023-12-16,21,713
2023-12-17,9,696
2023-12-18,16,848
2023-12-19,16,877
2023-12-20,15,860
2023-12-21,15,832
2023-12-22,7,847
2023-12-23,19,706
2023-12-24,17,724
2023-12-25,21,926
2023-12-26,26,890
2023-12-27,10,895
2023-12-28,16,883
2023-12-29,22,863
2023-12-30,19,729
2023-12-31,22,728
2024-01-01,20,761
2024-01-02,21,941
2024-01-03,21,911
2024-01-04,16,982
2024-01-05,11,943
2024-01-06,9,824
2024-01-07,12,821
2024-01-08,12,968
2024-01-09,21,961
2024-01-10,15,1021
2024-01-11,13,996
2024-01-12,17,958
2024-01-13,10,861
2024-01-14,16,813
2024-01-15,19,1014
2024-01-16,26,990
2024-01-17,27,1038
2024-01-18,24,998
2024-01-19,15,1007
2024-01-20,17,905
2024-01-21,25,869
2024-01-22,17,1001
2024-01-23,18,1361
2024-01-24,17,1249
2024-01-25,25,1303
2024-01-26,17,1274
2024-01-27,21,1109
2024-01-28,15,1230
2024-01-29,24,1467
2024-01-30,28,1435
2024-01-31,27,1403
2024-02-01,14,1385
2024-02-02,11,1297
2024-02-03,7,1158
2024-02-04,15,1267
2024-02-05,22,1259
2024-02-06,8,1232
2024-02-07,13,1142
2024-02-08,13,1075
2024-02-09,18,901
2024-02-10,16,915
2024-02-11,13,876
2024-02-12,9,904
2024-02-13,9,908
2024-02-14,19,974
2024-02-15,19,1001
2024-02-16,16,1064
2024-02-17,33,1158
2024-02-18,19,1344
2024-02-19,16,1456
2024-02-20,15,1469
2024-02-21,12,1497
2024-02-22,11,1458
2024-02-23,23,1509
2024-02-24,15,1305
2024-02-25,18,1262
2024-02-26,12,1561
2024-02-27,13,1569
2024-02-28,14,1578
2024-02-29,15,1543
2024-03-01,20,1542
2024-03-02,14,1317
2024-03-03,17,1244
2024-03-04,19,1569
2024-03-05,13,1585
2024-03-06,8,1522
2024-03-07,5,1540
2024-03-08,13,1516
2024-03-09,8,1324
2024-03-10,12,1343
2024-03-11,19,1626
2024-03-12,15,1637
2024-03-13,22,1561
2024-03-14,19,1619
2024-03-15,10,1588
2024-03-16,14,1327
2024-03-17,12,1311
2024-03-18,11,1657
2024-03-19,6,1617
2024-03-20,17,1599
2024-03-21,16,1625
2024-03-22,8,1610
2024-03-23,8,1360
2024-03-24,11,1353
2024-03-25,13,1656
2024-03-26,30,1663
2024-03-27,15,1606
2024-03-28,15,1562
2024-03-29,4,1549
2024-03-30,7,1337
2024-03-31,12,1296
2024-04-01,12,1669
2024-04-02,13,1566
2024-04-03,15,1537
2024-04-04,11,1261
2024-04-05,7,1307
2024-04-06,20,1336
2024-04-07,21,1677
2024-04-08,9,1647
2024-04-09,4,1639
2024-04-10,10,1674
2024-04-11,11,1617
2024-04-12,9,1592
2024-04-13,6,1347
2024-04-14,8,1322
2024-04-15,9,1647
2024-04-16,1,1636
2024-04-17,7,1648
2024-04-18,9,1587
2024-04-19,14,1617
2024-04-20,25,1422
2024-04-21,12,1350
2024-04-22,18,1596
2024-04-23,2,1629
2024-04-24,8,1615
2024-04-25,10,1592
2024-04-26,17,1604
2024-04-27,9,1374
2024-04-28,5,1562
2024-04-29,8,1636
2024-04-30,20,1528
2024-05-01,13,1180
2024-05-02,10,1231
2024-05-03,8,1249
2024-05-04,10,1308
2024-05-05,14,1375
2024-05-06,15,1632
2024-05-07,12,1681
2024-05-08,14,1634
2024-05-09,13,1620
2024-05-10,6,1625
2024-05-11,10,1630
2024-05-12,4,1363
2024-05-13,7,1640
2024-05-14,7,1611
2024-05-15,9,1598
2024-05-16,8,1597
2024-05-17,12,1617
2024-05-18,10,1372
2024-05-19,5,1371
2024-05-20,6,1647
2024-05-21,3,1602
2024-05-22,13,1632
2024-05-23,17,1634
2024-05-24,12,1584
2024-05-25,7,740
